sat.trackr.live / text

‹ back to catalog

STARLINK-37924

NORAD 69569 · 2026-135Z

PAYLOAD ACTIVE UNKNOWN

§ Identity

Operator
Country
US
Launch date
2026-06-15
Launch site
AFWTR
Launch vehicle
Mass (kg)
RCS (m²)

Purposes: comms

External: N2YO · Heavens-Above · Gunter

§ Orbital elements

Epoch: 2026-09-19T20:04:58.566144Z

Period
93.91 min
Inclination
97.2846°
Eccentricity
0.0001782
Mean motion
15.33454569 rev/d
Perigee alt
464.3 km
Apogee alt
466.7 km
Semi-major
6,843.7 km
B*
3.8775e-4
RAAN
290.6100°
Arg perigee
117.8242°
Mean anomaly
242.3181°
Rev number
1,490

§ Raw data

STARLINK-379241 69569U 26135Z   26262.83678896  .00012468  00000+0  38775-3 0  99982 69569  97.2846 290.6100 0001782 117.8242 242.3181 15.33454569 14904

JSON: /api/v1/satellites/69569 · /tle

For live sub-satellite position, see the globe view (requires WebGL).

§ Visibility from observer

Set your observer location to see the next 7 days of passes ≥ 10°. The values pass through the URL so the page stays shareable.

No JS? Fill the form by hand. The geolocation button needs JavaScript.